Location: Briis
(48.6240°N, 2.1211°E)
Time: 15:28:52
(UTC+00:00)

SJ 16-02 - Pass Details

Date: 25 September 2020
Orbit: 606 x 616 km, 75.0° (Epoch: 22 October)

Event Time Altitude Azimuth Distance (km) Brightness Sun altitude
Rises 02:13:10 0° 342° (NNW) 2,881 5.1 -32.5°
Reaches altitude 10° 02:15:28 10° 348° (NNW) 1,974 4.2 -32.2°
Enters shadow 02:16:13 15° 352° (N) 1,691 3.9 -32.1°
